User: anonymous   Login
Location: *
(46.1333°S, 161.2167°W)
Time: 01:13:32
(UTC+00:00)
Language:

Cosmos 2298 Rocket - Orbit

View from above orbital plane
View from above orbital plane
View from above satellite
View from above satellite

Ground track
Ground track

The orbit data is extracted from the following two-line orbital elements,

1 23432U 94083B   20272.47954417 +.00000011 +00000-0 +13385-4 0  9998
2 23432 074.0302 264.7688 0005542 196.4630 278.6650 14.33542097347958
Epoch (UTC): 28 September 2020 11:30:32
Eccentricity: 0.0005542
inclination: 74.0302°
perigee height: 776 km
apogee height: 784 km
right ascension of ascending node: 264.7688°
argument of perigee: 196.4630°
revolutions per day: 14.33542097
mean anomaly at epoch: 278.6650°
orbit number at epoch: 34795

The dashed part of the orbit path shows where the satellite is in the earth's shadow,  

DLR